Time,TemperatureF,DewpointF,PressureIn,WindDirection,WindDirectionDegrees,WindSpeedMPH,WindSpeedGustMPH,Humidity,HourlyPrecipIn,Conditions,Clouds,dailyrainin,SoftwareType,DateUTC
2013-01-18 00:07:00,72.5,57.8,29.81,WNW,293,0.0,3.8,60,0.00,,,0.00,WUHU216HW,2013-01-18 05:07:00,
2013-01-18 00:08:00,72.5,57.8,29.81,WNW,293,0.0,3.8,60,0.00,,,0.00,WUHU216HW,2013-01-18 05:08:00,
2013-01-18 00:09:00,72.6,57.9,29.81,North,0,0.0,3.8,60,0.00,,,0.00,WUHU216HW,2013-01-18 05:09:00,
2013-01-18 00:10:00,72.6,57.9,29.81,North,0,0.0,3.8,60,0.00,,,0.00,WUHU216HW,2013-01-18 05:10:00,
2013-01-18 00:11:00,72.6,57.9,29.81,WSW,248,0.0,0.0,60,0.00,,,0.00,WUHU216HW,2013-01-18 05:11:00,
2013-01-18 00:12:00,72.6,57.9,29.81,WSW,248,0.0,0.0,60,0.00,,,0.00,WUHU216HW,2013-01-18 05:12:00,
2013-01-18 00:13:00,72.5,57.3,29.81,SE,135,0.0,0.0,59,0.00,,,0.00,WUHU216HW,2013-01-18 05:13:00,
2013-01-18 00:14:00,34.1,31.1,29.86,West,270,0.0,0.0,89,0.02,,,0.57,WUHU216HW,2013-01-18 05:14:00,
2013-01-18 00:15:00,72.5,57.3,29.81,ESE,113,3.3,3.3,59,0.00,,,0.00,WUHU216HW,2013-01-18 05:15:00,
2013-01-18 00:16:00,72.5,57.3,29.81,ESE,113,3.3,3.3,59,0.00,,,0.00,WUHU216HW,2013-01-18 05:16:00,
2013-01-18 00:17:00,72.5,57.3,29.81,ESE,113,3.3,3.3,59,0.00,,,0.00,WUHU216HW,2013-01-18 05:17:00,
2013-01-18 00:19:00,34.1,31.1,29.86,West,270,0.0,0.0,89,0.02,,,0.57,WUHU216HW,2013-01-18 05:19:00,
2013-01-18 00:24:00,34.1,31.1,29.87,West,270,0.0,0.0,89,0.02,,,0.57,WUHU216HW,2013-01-18 05:24:00,
2013-01-18 00:29:00,34.1,31.1,29.87,West,270,0.0,0.0,89,0.02,,,0.57,WUHU216HW,2013-01-18 05:29:00,
2013-01-18 00:35:00,34.1,31.1,29.87,West,270,0.0,0.0,89,0.02,,,0.57,WUHU216HW,2013-01-18 05:35:00,
2013-01-18 00:40:00,34.1,31.1,29.85,West,270,0.0,0.0,89,0.02,,,0.57,WUHU216HW,2013-01-18 05:40:00,
2013-01-18 00:45:00,34.1,31.1,29.86,West,270,0.0,0.0,89,0.02,,,0.57,WUHU216HW,2013-01-18 05:45:00,
2013-01-18 00:50:00,34.1,31.1,29.85,West,270,0.0,0.0,89,0.02,,,0.57,WUHU216HW,2013-01-18 05:50:00,
2013-01-18 00:55:00,34.1,31.1,29.85,North,0,0.0,0.0,89,0.02,,,0.57,WUHU216HW,2013-01-18 05:55:00,
2013-01-18 00:56:00,71.2,57.1,29.80,West,270,0.0,4.4,61,0.00,,,0.00,WUHU216HW,2013-01-18 05:56:00,
2013-01-18 00:59:00,71.2,57.1,29.80,West,270,0.0,4.4,62,0.00,,,0.00,WUHU216HW,2013-01-18 05:59:00,
2013-01-18 01:00:00,34.1,31.1,29.87,North,0,0.0,0.0,89,0.02,,,0.59,WUHU216HW,2013-01-18 06:00:00,
2013-01-18 01:01:00,71.0,56.9,29.80,West,270,3.1,4.4,61,0.00,,,0.00,WUHU216HW,2013-01-18 06:01:00,
2013-01-18 01:02:00,71.0,56.9,29.80,West,270,3.1,4.4,61,0.00,,,0.00,WUHU216HW,2013-01-18 06:02:00,
2013-01-18 01:03:00,70.8,57.2,29.80,West,270,3.1,4.4,62,0.00,,,0.00,WUHU216HW,2013-01-18 06:03:00,
2013-01-18 01:04:00,70.8,57.2,29.80,West,270,3.1,4.4,62,0.00,,,0.00,WUHU216HW,2013-01-18 06:04:00,
2013-01-18 01:05:00,34.3,31.3,29.87,North,0,0.0,0.0,89,0.02,,,0.59,WUHU216HW,2013-01-18 06:05:00,
2013-01-18 01:06:00,70.8,57.2,29.80,West,270,1.3,3.1,62,0.00,,,0.00,WUHU216HW,2013-01-18 06:06:00,
2013-01-18 01:09:00,70.7,57.0,29.80,SW,225,0.0,3.1,62,0.00,,,0.00,WUHU216HW,2013-01-18 06:09:00,
2013-01-18 01:10:00,34.5,31.8,29.88,North,0,0.0,1.5,90,0.02,,,0.59,WUHU216HW,2013-01-18 06:10:00,
2013-01-18 01:11:00,70.7,57.0,29.80,SW,225,0.0,3.1,62,0.00,,,0.00,WUHU216HW,2013-01-18 06:11:00,
2013-01-18 01:15:00,34.5,31.8,29.89,North,0,0.0,1.5,90,0.02,,,0.59,WUHU216HW,2013-01-18 06:15:00,
2013-01-18 01:16:00,70.5,56.8,29.80,WSW,248,0.0,1.5,62,0.00,,,0.00,WUHU216HW,2013-01-18 06:16:00,
2013-01-18 01:17:00,70.5,56.8,29.80,SSW,203,0.0,1.5,63,0.00,,,0.00,WUHU216HW,2013-01-18 06:17:00,
2013-01-18 01:18:00,70.5,56.8,29.80,SSW,203,0.0,1.5,63,0.00,,,0.00,WUHU216HW,2013-01-18 06:18:00,
2013-01-18 01:19:00,70.5,56.8,29.80,SSW,203,0.0,0.0,63,0.00,,,0.00,WUHU216HW,2013-01-18 06:19:00,
2013-01-18 01:20:00,34.5,31.8,29.89,North,0,0.0,0.0,90,0.02,,,0.59,WUHU216HW,2013-01-18 06:20:00,
2013-01-18 01:22:00,70.3,57.1,29.80,SSW,203,0.0,0.0,63,0.00,,,0.00,WUHU216HW,2013-01-18 06:22:00,
2013-01-18 01:23:00,70.3,57.1,29.80,SSW,203,0.0,0.0,63,0.00,,,0.00,WUHU216HW,2013-01-18 06:23:00,
2013-01-18 01:25:00,34.5,31.8,29.89,NNW,338,0.0,0.0,90,0.02,,,0.59,WUHU216HW,2013-01-18 06:25:00,
2013-01-18 01:27:00,69.9,56.8,29.80,SSW,203,0.0,0.0,63,0.00,,,0.00,WUHU216HW,2013-01-18 06:27:00,
2013-01-18 01:28:00,69.9,56.8,29.80,SSW,203,0.0,0.0,63,0.00,,,0.00,WUHU216HW,2013-01-18 06:28:00,
2013-01-18 01:31:00,34.5,31.8,29.89,North,0,0.0,0.0,90,0.02,,,0.59,WUHU216HW,2013-01-18 06:31:00,
2013-01-18 01:36:00,34.5,31.8,29.90,NNW,338,0.0,0.0,90,0.02,,,0.59,WUHU216HW,2013-01-18 06:36:00,
2013-01-18 01:41:00,34.7,32.0,29.90,NNW,338,0.0,0.0,90,0.04,,,0.61,WUHU216HW,2013-01-18 06:41:00,
2013-01-18 01:46:00,34.8,32.1,29.91,NNW,338,0.0,0.0,90,0.04,,,0.61,WUHU216HW,2013-01-18 06:46:00,
2013-01-18 01:51:00,34.8,32.1,29.91,NNW,338,0.0,0.0,90,0.04,,,0.61,WUHU216HW,2013-01-18 06:51:00,
2013-01-18 01:56:00,34.8,32.1,29.91,NNW,338,0.0,0.0,90,0.04,,,0.61,WUHU216HW,2013-01-18 06:56:00,
2013-01-18 02:01:00,34.8,32.1,29.90,NNW,338,0.0,0.0,90,0.02,,,0.61,WUHU216HW,2013-01-18 07:01:00,
2013-01-18 02:06:00,34.7,32.0,29.91,NNW,338,0.0,0.0,90,0.02,,,0.61,WUHU216HW,2013-01-18 07:06:00,
2013-01-18 02:11:00,34.7,32.0,29.91,NNW,338,0.0,0.0,90,0.02,,,0.61,WUHU216HW,2013-01-18 07:11:00,
2013-01-18 02:16:00,34.5,31.8,29.91,NNW,338,0.0,0.0,90,0.02,,,0.61,WUHU216HW,2013-01-18 07:16:00,
2013-01-18 02:22:00,34.5,31.8,29.92,NNW,338,0.0,0.0,90,0.02,,,0.61,WUHU216HW,2013-01-18 07:22:00,
2013-01-18 02:27:00,34.5,31.8,29.92,NNW,338,0.0,0.0,90,0.02,,,0.61,WUHU216HW,2013-01-18 07:27:00,
2013-01-18 02:32:00,34.5,31.8,29.92,NNW,338,0.0,0.0,90,0.02,,,0.61,WUHU216HW,2013-01-18 07:32:00,
2013-01-18 02:37:00,34.5,31.8,29.92,NNW,338,0.0,0.0,90,0.02,,,0.61,WUHU216HW,2013-01-18 07:37:00,
2013-01-18 02:42:00,34.5,31.8,29.93,NNW,338,0.0,0.0,90,0.02,,,0.61,WUHU216HW,2013-01-18 07:42:00,
2013-01-18 02:47:00,34.5,31.8,29.93,NNW,338,0.0,0.0,90,0.02,,,0.61,WUHU216HW,2013-01-18 07:47:00,
2013-01-18 02:52:00,34.5,31.8,29.92,NNW,338,0.0,0.0,90,0.02,,,0.61,WUHU216HW,2013-01-18 07:52:00,
2013-01-18 02:57:00,34.5,31.8,29.92,NNW,338,0.0,0.0,90,0.02,,,0.61,WUHU216HW,2013-01-18 07:57:00,
2013-01-18 03:02:00,34.3,31.6,29.92,NNW,338,0.0,0.0,90,0.00,,,0.61,WUHU216HW,2013-01-18 08:02:00,
2013-01-18 03:07:00,34.3,31.6,29.93,NNW,338,0.0,0.0,90,0.00,,,0.61,WUHU216HW,2013-01-18 08:07:00,
2013-01-18 03:12:00,34.3,31.6,29.93,NNW,338,0.0,0.0,90,0.00,,,0.61,WUHU216HW,2013-01-18 08:12:00,
2013-01-18 03:17:00,34.3,31.6,29.93,NNW,338,0.0,0.0,90,0.00,,,0.61,WUHU216HW,2013-01-18 08:17:00,
2013-01-18 03:22:00,34.1,31.4,29.93,NNW,338,0.0,0.0,90,0.00,,,0.61,WUHU216HW,2013-01-18 08:22:00,
2013-01-18 03:27:00,33.9,31.2,29.94,NNW,338,0.0,0.0,90,0.00,,,0.61,WUHU216HW,2013-01-18 08:27:00,
2013-01-18 03:32:00,33.9,31.2,29.94,NNW,338,0.0,0.0,90,0.00,,,0.61,WUHU216HW,2013-01-18 08:32:00,
2013-01-18 03:37:00,33.9,31.2,29.94,NNW,338,0.0,0.0,90,0.02,,,0.63,WUHU216HW,2013-01-18 08:37:00,
2013-01-18 03:42:00,33.9,31.2,29.94,NNW,338,0.0,0.0,90,0.02,,,0.63,WUHU216HW,2013-01-18 08:42:00,
2013-01-18 03:47:00,33.9,31.2,29.94,NNW,338,0.0,0.0,90,0.02,,,0.63,WUHU216HW,2013-01-18 08:47:00,
2013-01-18 03:52:00,33.9,31.2,29.94,NNW,338,0.0,0.0,90,0.02,,,0.63,WUHU216HW,2013-01-18 08:52:00,
2013-01-18 03:57:00,33.6,30.9,29.94,NNW,338,0.0,0.0,90,0.02,,,0.63,WUHU216HW,2013-01-18 08:57:00,
2013-01-18 04:02:00,33.6,30.9,29.94,NNW,338,0.0,0.0,90,0.02,,,0.63,WUHU216HW,2013-01-18 09:02:00,
2013-01-18 04:07:00,33.4,30.7,29.94,NNW,338,0.0,0.0,90,0.02,,,0.63,WUHU216HW,2013-01-18 09:07:00,
2013-01-18 04:13:00,33.4,30.7,29.94,NNW,338,0.0,0.0,90,0.02,,,0.63,WUHU216HW,2013-01-18 09:13:00,
2013-01-18 04:18:00,33.2,30.6,29.95,NNW,338,0.0,0.0,90,0.02,,,0.63,WUHU216HW,2013-01-18 09:18:00,
2013-01-18 04:23:00,33.0,30.4,29.95,NNW,338,0.0,0.0,90,0.02,,,0.63,WUHU216HW,2013-01-18 09:23:00,
2013-01-18 04:28:00,33.0,30.4,29.96,NNW,338,0.0,0.0,90,0.02,,,0.63,WUHU216HW,2013-01-18 09:28:00,
2013-01-18 04:31:00,64.9,56.4,29.79,SSE,158,2.2,4.4,74,0.00,,,0.00,WUHU216HW,2013-01-18 09:31:00,
2013-01-18 04:32:00,64.9,56.4,29.79,SE,135,4.4,4.4,74,0.00,,,0.00,WUHU216HW,2013-01-18 09:32:00,
2013-01-18 04:33:00,33.0,30.4,29.95,NNW,338,0.0,0.0,90,0.02,,,0.63,WUHU216HW,2013-01-18 09:33:00,
2013-01-18 04:34:00,64.7,56.2,29.79,South,180,5.1,5.1,74,0.00,,,0.00,WUHU216HW,2013-01-18 09:34:00,
2013-01-18 04:35:00,64.7,56.2,29.79,South,180,5.1,5.1,74,0.00,,,0.00,WUHU216HW,2013-01-18 09:35:00,
2013-01-18 04:36:00,64.9,56.4,29.79,SSE,158,0.0,5.1,74,0.00,,,0.00,WUHU216HW,2013-01-18 09:36:00,
2013-01-18 04:38:00,32.9,30.2,29.96,NNW,338,0.0,0.0,90,0.02,,,0.63,WUHU216HW,2013-01-18 09:38:00,
2013-01-18 04:39:00,64.9,56.4,29.79,SE,135,1.5,5.1,74,0.00,,,0.00,WUHU216HW,2013-01-18 09:39:00,
2013-01-18 04:40:00,64.9,56.4,29.79,South,180,3.5,5.1,74,0.00,,,0.00,WUHU216HW,2013-01-18 09:40:00,
2013-01-18 04:41:00,64.9,56.4,29.79,South,180,3.5,5.1,74,0.00,,,0.00,WUHU216HW,2013-01-18 09:41:00,
2013-01-18 04:42:00,64.9,56.4,29.79,South,180,3.5,5.1,74,0.00,,,0.00,WUHU216HW,2013-01-18 09:42:00,
2013-01-18 04:43:00,65.1,56.6,29.79,SE,135,2.0,5.1,74,0.00,,,0.00,WUHU216HW,2013-01-18 09:43:00,
2013-01-18 04:44:00,32.9,30.2,29.97,NNW,338,0.0,0.0,90,0.02,,,0.63,WUHU216HW,2013-01-18 09:44:00,
2013-01-18 04:45:00,65.1,56.6,29.79,SE,135,2.0,5.1,74,0.00,,,0.00,WUHU216HW,2013-01-18 09:45:00,
2013-01-18 04:49:00,32.9,30.2,29.97,NNW,338,0.0,0.0,90,0.02,,,0.63,WUHU216HW,2013-01-18 09:49:00,
2013-01-18 04:54:00,32.9,30.2,29.97,NNW,338,0.0,0.0,90,0.02,,,0.63,WUHU216HW,2013-01-18 09:54:00,
2013-01-18 04:59:00,32.9,30.2,29.97,NNW,338,0.0,0.0,90,0.02,,,0.63,WUHU216HW,2013-01-18 09:59:00,
2013-01-18 05:04:00,33.0,30.4,29.98,NNW,338,0.0,0.0,90,0.00,,,0.63,WUHU216HW,2013-01-18 10:04:00,
2013-01-18 05:09:00,32.9,30.2,29.98,NNW,338,0.0,0.0,90,0.00,,,0.63,WUHU216HW,2013-01-18 10:09:00,
2013-01-18 05:14:00,32.9,30.2,29.98,NNW,338,0.0,0.0,90,0.00,,,0.63,WUHU216HW,2013-01-18 10:14:00,
2013-01-18 05:19:00,32.9,30.2,29.98,NNW,338,0.0,0.0,90,0.00,,,0.63,WUHU216HW,2013-01-18 10:19:00,
2013-01-18 05:24:00,32.7,30.1,29.98,NNW,338,0.0,0.0,90,0.00,,,0.63,WUHU216HW,2013-01-18 10:24:00,
2013-01-18 05:26:00,64.9,56.8,29.79,South,180,4.6,5.3,75,0.00,,,0.00,WUHU216HW,2013-01-18 10:26:00,
2013-01-18 05:28:00,64.9,56.8,29.79,SSW,203,2.6,5.3,75,0.00,,,0.00,WUHU216HW,2013-01-18 10:28:00,
2013-01-18 05:29:00,32.9,30.2,29.98,NNW,338,0.0,0.0,90,0.00,,,0.63,WUHU216HW,2013-01-18 10:29:00,
2013-01-18 05:30:00,64.9,56.8,29.79,SSE,158,1.7,5.3,76,0.00,,,0.00,WUHU216HW,2013-01-18 10:30:00,
2013-01-18 05:33:00,64.9,56.8,29.79,SSE,158,2.9,5.3,76,0.00,,,0.00,WUHU216HW,2013-01-18 10:33:00,
2013-01-18 05:34:00,32.9,30.2,29.98,NNW,338,0.0,0.0,90,0.00,,,0.63,WUHU216HW,2013-01-18 10:34:00,
2013-01-18 05:36:00,64.9,57.1,29.78,SE,135,0.0,4.6,76,0.00,,,0.00,WUHU216HW,2013-01-18 10:36:00,
2013-01-18 05:37:00,64.9,57.1,29.78,SE,135,0.0,4.4,76,0.00,,,0.00,WUHU216HW,2013-01-18 10:37:00,
2013-01-18 05:39:00,64.9,57.1,29.78,South,180,0.0,4.4,76,0.00,,,0.00,WUHU216HW,2013-01-18 10:39:00,
2013-01-18 05:40:00,32.9,30.2,29.99,NNW,338,0.0,0.0,90,0.00,,,0.63,WUHU216HW,2013-01-18 10:40:00,
2013-01-18 05:41:00,64.7,57.0,29.78,SSE,158,0.0,4.4,76,0.00,,,0.00,WUHU216HW,2013-01-18 10:41:00,
2013-01-18 05:45:00,32.9,30.2,29.99,NNW,338,0.0,0.0,90,0.00,,,0.63,WUHU216HW,2013-01-18 10:45:00,
2013-01-18 05:50:00,32.9,30.2,29.99,NNW,338,0.0,0.0,90,0.00,,,0.63,WUHU216HW,2013-01-18 10:50:00,
2013-01-18 05:55:00,32.7,30.1,30.00,NNW,338,0.0,0.0,90,0.00,,,0.63,WUHU216HW,2013-01-18 10:55:00,
2013-01-18 06:00:00,32.7,30.1,30.00,NNW,338,0.0,0.0,90,0.00,,,0.63,WUHU216HW,2013-01-18 11:00:00,
2013-01-18 06:05:00,32.7,30.1,30.00,NNW,338,0.0,0.0,90,0.00,,,0.63,WUHU216HW,2013-01-18 11:05:00,
2013-01-18 06:10:00,32.7,30.1,30.00,NNW,338,0.0,0.0,90,0.00,,,0.63,WUHU216HW,2013-01-18 11:10:00,
2013-01-18 06:15:00,32.5,29.9,30.00,NNW,338,0.0,0.0,90,0.00,,,0.63,WUHU216HW,2013-01-18 11:15:00,
2013-01-18 06:20:00,32.5,29.9,30.00,NNW,338,0.0,0.0,90,0.00,,,0.63,WUHU216HW,2013-01-18 11:20:00,
2013-01-18 06:25:00,32.5,29.9,30.01,NNW,338,0.0,0.0,90,0.00,,,0.63,WUHU216HW,2013-01-18 11:25:00,
2013-01-18 06:31:00,32.3,29.8,30.01,NNW,338,0.0,0.0,90,0.00,,,0.63,WUHU216HW,2013-01-18 11:31:00,
2013-01-18 06:36:00,32.1,29.6,30.01,NNW,338,0.0,0.0,90,0.00,,,0.63,WUHU216HW,2013-01-18 11:36:00,
2013-01-18 06:41:00,32.1,29.6,30.02,NNW,338,0.0,0.0,90,0.00,,,0.63,WUHU216HW,2013-01-18 11:41:00,
2013-01-18 06:46:00,32.1,29.6,30.02,NNW,338,0.0,0.0,90,0.00,,,0.63,WUHU216HW,2013-01-18 11:46:00,
2013-01-18 06:51:00,32.1,29.6,30.02,NNW,338,0.0,0.0,90,0.00,,,0.63,WUHU216HW,2013-01-18 11:51:00,
2013-01-18 06:52:00,63.6,56.6,29.79,South,180,0.6,4.4,79,0.00,,,0.00,WUHU216HW,2013-01-18 11:52:00,
2013-01-18 06:54:00,63.6,56.6,29.79,South,180,3.1,4.4,79,0.00,,,0.00,WUHU216HW,2013-01-18 11:54:00,
2013-01-18 06:55:00,63.6,56.6,29.79,South,180,3.1,4.4,79,0.00,,,0.00,WUHU216HW,2013-01-18 11:55:00,
2013-01-18 06:56:00,32.1,29.6,30.02,NNW,338,0.0,0.0,90,0.00,,,0.63,WUHU216HW,2013-01-18 11:56:00,
2013-01-18 06:58:00,63.5,56.8,29.79,SE,135,1.3,3.1,79,0.00,,,0.00,WUHU216HW,2013-01-18 11:58:00,
2013-01-18 07:00:00,63.3,56.6,29.79,SSE,158,0.0,3.1,79,0.00,,,0.00,WUHU216HW,2013-01-18 12:00:00,
2013-01-18 07:01:00,32.1,29.6,30.03,NNW,338,0.0,0.0,90,0.00,,,0.63,WUHU216HW,2013-01-18 12:01:00,
2013-01-18 07:02:00,63.3,56.6,29.79,SSE,158,1.1,3.1,79,0.00,,,0.00,WUHU216HW,2013-01-18 12:02:00,
2013-01-18 07:03:00,63.3,56.6,29.79,SSE,158,1.1,3.1,79,0.00,,,0.00,WUHU216HW,2013-01-18 12:03:00,
2013-01-18 07:04:00,63.3,56.6,29.79,SSE,158,0.0,3.1,79,0.00,,,0.00,WUHU216HW,2013-01-18 12:04:00,
2013-01-18 07:05:00,63.3,56.6,29.79,SSE,158,0.0,2.2,79,0.00,,,0.00,WUHU216HW,2013-01-18 12:05:00,
2013-01-18 07:06:00,32.1,29.6,30.04,NNW,338,0.0,0.0,90,0.00,,,0.63,WUHU216HW,2013-01-18 12:06:00,
2013-01-18 07:07:00,63.3,56.6,29.79,SSE,158,0.4,1.3,79,0.00,,,0.00,WUHU216HW,2013-01-18 12:07:00,
2013-01-18 07:11:00,32.1,29.6,30.04,NNW,338,0.0,0.0,90,0.00,,,0.63,WUHU216HW,2013-01-18 12:11:00,
2013-01-18 07:13:00,63.3,56.6,29.80,SE,135,0.0,1.1,79,0.00,,,0.00,WUHU216HW,2013-01-18 12:13:00,
2013-01-18 07:14:00,63.3,56.6,29.80,SE,135,0.0,0.4,79,0.00,,,0.00,WUHU216HW,2013-01-18 12:14:00,
2013-01-18 07:16:00,32.1,29.6,30.05,NNW,338,0.0,0.0,90,0.00,,,0.63,WUHU216HW,2013-01-18 12:16:00,
2013-01-18 07:17:00,63.1,56.8,29.80,SE,135,0.0,0.4,80,0.00,,,0.00,WUHU216HW,2013-01-18 12:17:00,
2013-01-18 07:18:00,63.1,56.8,29.80,SE,135,1.7,1.7,79,0.00,,,0.00,WUHU216HW,2013-01-18 12:18:00,
2013-01-18 07:19:00,62.9,56.6,29.81,SSE,158,0.0,1.7,80,0.00,,,0.00,WUHU216HW,2013-01-18 12:19:00,
2013-01-18 07:20:00,62.9,56.6,29.81,SSE,158,0.0,1.7,80,0.00,,,0.00,WUHU216HW,2013-01-18 12:20:00,
2013-01-18 07:21:00,32.1,29.6,30.05,NNW,338,0.0,0.0,90,0.00,,,0.63,WUHU216HW,2013-01-18 12:21:00,
2013-01-18 07:22:00,62.9,56.6,29.81,SSE,158,0.0,1.7,80,0.00,,,0.00,WUHU216HW,2013-01-18 12:22:00,
2013-01-18 07:23:00,62.9,56.6,29.81,SSE,158,0.0,1.7,80,0.00,,,0.00,WUHU216HW,2013-01-18 12:23:00,
2013-01-18 07:24:00,62.9,56.6,29.81,SE,135,0.0,1.7,80,0.00,,,0.00,WUHU216HW,2013-01-18 12:24:00,
2013-01-18 07:25:00,62.9,56.6,29.81,SE,135,0.0,1.7,80,0.00,,,0.00,WUHU216HW,2013-01-18 12:25:00,
2013-01-18 07:26:00,62.9,56.6,29.81,ESE,113,1.1,1.7,80,0.00,,,0.00,WUHU216HW,2013-01-18 12:26:00,
2013-01-18 07:27:00,32.1,29.6,30.05,NNW,338,0.0,0.0,90,0.00,,,0.63,WUHU216HW,2013-01-18 12:27:00,
2013-01-18 07:28:00,62.9,56.6,29.81,ESE,113,0.0,1.7,80,0.00,,,0.00,WUHU216HW,2013-01-18 12:28:00,
2013-01-18 07:29:00,62.9,56.6,29.81,ESE,113,0.0,1.1,80,0.00,,,0.00,WUHU216HW,2013-01-18 12:29:00,
2013-01-18 07:30:00,62.7,56.8,29.80,SE,135,2.4,2.4,81,0.00,,,0.00,WUHU216HW,2013-01-18 12:30:00,
2013-01-18 07:31:00,62.7,56.8,29.80,SE,135,2.4,2.4,81,0.00,,,0.00,WUHU216HW,2013-01-18 12:31:00,
2013-01-18 07:32:00,32.1,29.6,30.06,NNW,338,0.0,0.0,90,0.00,,,0.63,WUHU216HW,2013-01-18 12:32:00,
2013-01-18 07:33:00,62.7,56.8,29.80,SE,135,0.0,2.4,81,0.00,,,0.00,WUHU216HW,2013-01-18 12:33:00,
2013-01-18 07:34:00,62.7,56.8,29.80,SE,135,0.0,2.4,81,0.00,,,0.00,WUHU216HW,2013-01-18 12:34:00,
2013-01-18 07:36:00,62.7,56.8,29.79,SSE,158,1.7,2.4,81,0.00,,,0.00,WUHU216HW,2013-01-18 12:36:00,
2013-01-18 07:37:00,32.1,29.6,30.06,NNW,338,0.0,0.0,90,0.00,,,0.63,WUHU216HW,2013-01-18 12:37:00,
2013-01-18 07:38:00,62.7,56.8,29.79,SSE,158,1.7,2.4,81,0.00,,,0.00,WUHU216HW,2013-01-18 12:38:00,
2013-01-18 07:39:00,62.7,56.8,29.79,SSE,158,0.0,2.4,81,0.00,,,0.00,WUHU216HW,2013-01-18 12:39:00,
2013-01-18 07:40:00,62.7,56.8,29.79,SSE,158,0.0,2.4,81,0.00,,,0.00,WUHU216HW,2013-01-18 12:40:00,
2013-01-18 07:42:00,32.1,29.6,30.06,NNW,338,0.0,0.0,90,0.00,,,0.63,WUHU216HW,2013-01-18 12:42:00,
2013-01-18 07:43:00,62.4,56.4,29.79,SSE,158,1.5,1.7,81,0.00,,,0.00,WUHU216HW,2013-01-18 12:43:00,
2013-01-18 07:44:00,62.4,56.4,29.79,SSE,158,1.5,1.7,81,0.00,,,0.00,WUHU216HW,2013-01-18 12:44:00,
2013-01-18 07:45:00,62.4,56.4,29.79,South,180,0.0,1.7,81,0.00,,,0.00,WUHU216HW,2013-01-18 12:45:00,
2013-01-18 07:46:00,62.4,56.4,29.79,South,180,0.0,1.7,81,0.00,,,0.00,WUHU216HW,2013-01-18 12:46:00,
2013-01-18 07:47:00,32.1,29.6,30.06,NNW,338,0.0,0.0,90,0.00,,,0.63,WUHU216HW,2013-01-18 12:47:00,
2013-01-18 07:48:00,62.4,56.4,29.79,SE,135,1.3,1.7,82,0.00,,,0.00,WUHU216HW,2013-01-18 12:48:00,
2013-01-18 07:49:00,62.4,56.4,29.79,SE,135,0.4,1.5,82,0.00,,,0.00,WUHU216HW,2013-01-18 12:49:00,
2013-01-18 07:50:00,62.4,56.4,29.79,SE,135,0.4,1.5,82,0.00,,,0.00,WUHU216HW,2013-01-18 12:50:00,
2013-01-18 07:52:00,32.5,29.9,30.07,NNW,338,0.0,0.0,90,0.00,,,0.63,WUHU216HW,2013-01-18 12:52:00,
2013-01-18 07:57:00,32.5,29.9,30.07,NNW,338,0.0,0.0,90,0.00,,,0.63,WUHU216HW,2013-01-18 12:57:00,
2013-01-18 08:02:00,32.7,30.1,30.07,NNW,338,0.0,0.0,90,0.00,,,0.63,WUHU216HW,2013-01-18 13:02:00,
2013-01-18 08:06:00,62.4,56.8,29.78,South,180,3.8,3.8,82,0.00,,,0.00,WUHU216HW,2013-01-18 13:06:00,
2013-01-18 08:07:00,32.9,30.0,30.07,NNW,338,0.0,0.0,89,0.00,,,0.63,WUHU216HW,2013-01-18 13:07:00,
2013-01-18 08:08:00,62.4,56.8,29.78,SE,135,5.1,5.1,82,0.00,,,0.00,WUHU216HW,2013-01-18 13:08:00,
2013-01-18 08:09:00,62.2,56.6,29.78,SE,135,0.0,5.1,82,0.00,,,0.00,WUHU216HW,2013-01-18 13:09:00,
2013-01-18 08:10:00,62.2,56.6,29.78,SE,135,0.0,5.1,82,0.00,,,0.00,WUHU216HW,2013-01-18 13:10:00,
2013-01-18 08:11:00,62.2,56.6,29.78,SE,135,0.0,5.1,82,0.00,,,0.00,WUHU216HW,2013-01-18 13:11:00,
2013-01-18 08:12:00,33.0,30.1,30.08,NNW,338,0.0,0.0,89,0.00,,,0.63,WUHU216HW,2013-01-18 13:12:00,
2013-01-18 08:13:00,62.2,56.6,29.78,SSE,158,3.5,5.1,82,0.00,,,0.00,WUHU216HW,2013-01-18 13:13:00,
2013-01-18 08:14:00,62.2,56.6,29.78,SSE,158,3.5,5.1,82,0.00,,,0.00,WUHU216HW,2013-01-18 13:14:00,
2013-01-18 08:15:00,62.2,56.6,29.78,SSE,158,0.2,5.1,82,0.00,,,0.00,WUHU216HW,2013-01-18 13:15:00,
2013-01-18 08:17:00,33.4,30.4,30.08,NNW,338,0.0,0.0,89,0.00,,,0.63,WUHU216HW,2013-01-18 13:17:00,
2013-01-18 08:18:00,62.2,56.6,29.78,South,180,3.1,5.1,82,0.00,,,0.00,WUHU216HW,2013-01-18 13:18:00,
2013-01-18 08:21:00,62.2,56.6,29.78,SSE,158,2.0,3.5,82,0.00,,,0.00,WUHU216HW,2013-01-18 13:21:00,
2013-01-18 08:22:00,33.4,30.4,30.08,NNW,338,0.0,0.0,89,0.00,,,0.63,WUHU216HW,2013-01-18 13:22:00,
2013-01-18 08:23:00,62.2,56.6,29.78,SSE,158,2.0,3.5,82,0.00,,,0.00,WUHU216HW,2013-01-18 13:23:00,
2013-01-18 08:24:00,62.2,56.6,29.78,SSE,158,2.0,3.5,82,0.00,,,0.00,WUHU216HW,2013-01-18 13:24:00,
2013-01-18 08:25:00,62.2,56.6,29.78,SSE,158,2.0,3.1,82,0.00,,,0.00,WUHU216HW,2013-01-18 13:25:00,
2013-01-18 08:26:00,62.2,56.6,29.78,SSE,158,2.0,3.1,82,0.00,,,0.00,WUHU216HW,2013-01-18 13:26:00,
2013-01-18 08:27:00,33.6,30.6,30.08,NNW,338,0.0,0.0,89,0.00,,,0.63,WUHU216HW,2013-01-18 13:27:00,
2013-01-18 08:28:00,62.2,56.6,29.78,SSE,158,2.0,3.1,82,0.00,,,0.00,WUHU216HW,2013-01-18 13:28:00,
2013-01-18 08:29:00,62.2,56.6,29.78,SSE,158,2.0,3.1,82,0.00,,,0.00,WUHU216HW,2013-01-18 13:29:00,
2013-01-18 08:30:00,62.2,56.6,29.78,SSE,158,2.0,2.0,82,0.00,,,0.00,WUHU216HW,2013-01-18 13:30:00,
2013-01-18 08:31:00,62.2,56.6,29.78,SSE,158,2.0,2.0,82,0.00,,,0.00,WUHU216HW,2013-01-18 13:31:00,
2013-01-18 08:32:00,33.9,30.9,30.09,NNW,338,0.0,0.0,89,0.00,,,0.63,WUHU216HW,2013-01-18 13:32:00,
2013-01-18 08:33:00,61.8,56.6,29.78,SE,135,0.0,2.0,83,0.00,,,0.00,WUHU216HW,2013-01-18 13:33:00,
2013-01-18 08:34:00,61.8,56.6,29.78,SE,135,0.0,2.0,83,0.00,,,0.00,WUHU216HW,2013-01-18 13:34:00,
2013-01-18 08:35:00,61.8,56.6,29.78,SSE,158,2.9,2.9,83,0.00,,,0.00,WUHU216HW,2013-01-18 13:35:00,
2013-01-18 08:36:00,61.8,56.6,29.78,SSE,158,2.9,2.9,83,0.00,,,0.00,WUHU216HW,2013-01-18 13:36:00,
2013-01-18 08:37:00,33.9,30.9,30.10,NNW,338,0.0,0.0,89,0.00,,,0.63,WUHU216HW,2013-01-18 13:37:00,
2013-01-18 08:38:00,61.7,56.4,29.78,SSE,158,0.6,2.9,83,0.00,,,0.00,WUHU216HW,2013-01-18 13:38:00,
2013-01-18 08:39:00,61.7,56.4,29.78,SSE,158,1.5,2.9,83,0.00,,,0.00,WUHU216HW,2013-01-18 13:39:00,
2013-01-18 08:40:00,61.7,56.4,29.78,SSE,158,1.5,2.9,83,0.00,,,0.00,WUHU216HW,2013-01-18 13:40:00,
2013-01-18 08:41:00,61.7,56.4,29.78,SSE,158,0.0,2.9,83,0.00,,,0.00,WUHU216HW,2013-01-18 13:41:00,
2013-01-18 08:42:00,34.1,31.1,30.10,NNW,338,0.0,0.0,89,0.00,,,0.63,WUHU216HW,2013-01-18 13:42:00,
2013-01-18 08:47:00,34.5,31.5,30.11,NNW,338,0.0,0.0,89,0.00,,,0.63,WUHU216HW,2013-01-18 13:47:00,
2013-01-18 08:52:00,34.8,31.8,30.12,NNW,338,0.0,0.0,89,0.00,,,0.63,WUHU216HW,2013-01-18 13:52:00,
2013-01-18 08:53:00,61.3,56.1,29.77,SSE,158,2.2,2.4,84,0.00,,,0.00,WUHU216HW,2013-01-18 13:53:00,
2013-01-18 08:54:00,61.3,56.1,29.77,SSE,158,2.2,2.4,84,0.00,,,0.00,WUHU216HW,2013-01-18 13:54:00,
2013-01-18 08:57:00,34.8,31.8,30.12,NNW,338,0.0,0.0,88,0.00,,,0.63,WUHU216HW,2013-01-18 13:57:00,
2013-01-18 08:58:00,61.3,56.1,29.77,SSE,158,0.8,2.4,84,0.00,,,0.00,WUHU216HW,2013-01-18 13:58:00,
2013-01-18 08:59:00,61.3,56.1,29.77,SE,135,3.3,3.3,84,0.00,,,0.00,WUHU216HW,2013-01-18 13:59:00,
2013-01-18 09:00:00,61.3,56.1,29.77,SE,135,1.3,3.3,84,0.00,,,0.00,WUHU216HW,2013-01-18 14:00:00,
2013-01-18 09:01:00,61.3,56.1,29.77,SE,135,1.3,3.3,84,0.00,,,0.00,WUHU216HW,2013-01-18 14:01:00,
2013-01-18 09:02:00,35.2,31.9,30.12,NNW,338,0.0,0.0,88,0.00,,,0.63,WUHU216HW,2013-01-18 14:02:00,
2013-01-18 09:03:00,61.3,56.1,29.77,WSW,248,1.7,3.3,84,0.00,,,0.00,WUHU216HW,2013-01-18 14:03:00,
2013-01-18 09:04:00,61.3,56.1,29.77,WSW,248,1.7,3.3,84,0.00,,,0.00,WUHU216HW,2013-01-18 14:04:00,
2013-01-18 09:06:00,61.3,56.1,29.77,South,180,1.3,3.3,84,0.00,,,0.00,WUHU216HW,2013-01-18 14:06:00,
2013-01-18 09:07:00,35.2,31.9,30.13,NNW,338,0.0,0.0,88,0.00,,,0.63,WUHU216HW,2013-01-18 14:07:00,
2013-01-18 09:08:00,61.5,56.6,29.77,SSE,158,4.6,4.6,84,0.00,,,0.00,WUHU216HW,2013-01-18 14:08:00,
2013-01-18 09:09:00,61.5,56.6,29.77,South,180,3.1,4.6,84,0.00,,,0.00,WUHU216HW,2013-01-18 14:09:00,
2013-01-18 09:10:00,61.5,56.6,29.77,South,180,3.1,4.6,84,0.00,,,0.00,WUHU216HW,2013-01-18 14:10:00,
2013-01-18 09:11:00,61.5,56.6,29.77,SSW,203,1.7,4.6,84,0.00,,,0.00,WUHU216HW,2013-01-18 14:11:00,
2013-01-18 09:12:00,61.5,56.6,29.77,SSW,203,1.7,4.6,84,0.00,,,0.00,WUHU216HW,2013-01-18 14:12:00,
2013-01-18 09:13:00,35.9,32.6,30.13,NNW,338,0.0,0.0,88,0.00,,,0.63,WUHU216HW,2013-01-18 14:13:00,
2013-01-18 09:14:00,61.3,56.4,29.77,SSE,158,1.7,4.6,84,0.00,,,0.00,WUHU216HW,2013-01-18 14:14:00,
2013-01-18 09:15:00,61.3,56.4,29.77,SSE,158,1.7,4.6,84,0.00,,,0.00,WUHU216HW,2013-01-18 14:15:00,
2013-01-18 09:16:00,61.3,56.4,29.77,SSE,158,4.2,4.6,84,0.00,,,0.00,WUHU216HW,2013-01-18 14:16:00,
2013-01-18 09:17:00,61.3,56.4,29.77,SSE,158,4.2,4.6,84,0.00,,,0.00,WUHU216HW,2013-01-18 14:17:00,
2013-01-18 09:18:00,36.3,32.7,30.13,NNW,338,0.0,0.0,87,0.00,,,0.63,WUHU216HW,2013-01-18 14:18:00,
2013-01-18 09:19:00,61.3,56.4,29.77,SSE,158,3.5,4.2,84,0.00,,,0.00,WUHU216HW,2013-01-18 14:19:00,
2013-01-18 09:20:00,61.3,56.4,29.77,ESE,113,1.3,4.2,85,0.00,,,0.00,WUHU216HW,2013-01-18 14:20:00,
2013-01-18 09:21:00,61.3,56.4,29.77,ESE,113,1.3,4.2,85,0.00,,,0.00,WUHU216HW,2013-01-18 14:21:00,
2013-01-18 09:22:00,61.3,56.4,29.77,ESE,113,1.3,4.2,85,0.00,,,0.00,WUHU216HW,2013-01-18 14:22:00,
2013-01-18 09:23:00,36.6,33.1,30.14,NNW,338,0.0,0.0,87,0.00,,,0.63,WUHU216HW,2013-01-18 14:23:00,
2013-01-18 09:24:00,61.3,56.4,29.77,ESE,113,1.3,4.2,85,0.00,,,0.00,WUHU216HW,2013-01-18 14:24:00,
2013-01-18 09:25:00,61.3,56.4,29.77,ESE,113,1.3,4.2,85,0.00,,,0.00,WUHU216HW,2013-01-18 14:25:00,
2013-01-18 09:26:00,61.3,56.4,29.77,ESE,113,1.3,4.2,85,0.00,,,0.00,WUHU216HW,2013-01-18 14:26:00,
2013-01-18 09:27:00,61.3,56.4,29.77,ESE,113,1.3,4.2,85,0.00,,,0.00,WUHU216HW,2013-01-18 14:27:00,
2013-01-18 09:28:00,37.0,33.1,30.14,NNW,338,0.0,0.0,86,0.00,,,0.63,WUHU216HW,2013-01-18 14:28:00,
2013-01-18 09:29:00,61.3,56.4,29.77,ESE,113,1.3,3.5,85,0.00,,,0.00,WUHU216HW,2013-01-18 14:29:00,
2013-01-18 09:31:00,61.3,56.4,29.77,ESE,113,1.3,1.3,85,0.00,,,0.00,WUHU216HW,2013-01-18 14:31:00,
2013-01-18 09:32:00,61.3,56.4,29.77,ESE,113,1.3,1.3,85,0.00,,,0.00,WUHU216HW,2013-01-18 14:32:00,
2013-01-18 09:33:00,37.2,33.3,30.14,NNW,338,0.8,0.8,85,0.00,,,0.63,WUHU216HW,2013-01-18 14:33:00,
2013-01-18 09:34:00,61.3,56.4,29.77,South,180,0.8,1.3,85,0.00,,,0.00,WUHU216HW,2013-01-18 14:34:00,
2013-01-18 09:35:00,61.5,56.9,29.77,SE,135,3.1,3.1,85,0.00,,,0.00,WUHU216HW,2013-01-18 14:35:00,
2013-01-18 09:36:00,61.5,56.9,29.77,SE,135,3.1,3.1,85,0.00,,,0.00,WUHU216HW,2013-01-18 14:36:00,
2013-01-18 09:37:00,61.5,56.9,29.77,South,180,3.5,3.5,85,0.00,,,0.00,WUHU216HW,2013-01-18 14:37:00,
2013-01-18 09:38:00,37.9,33.8,30.15,West,270,0.0,0.8,85,0.00,,,0.63,WUHU216HW,2013-01-18 14:38:00,
2013-01-18 09:40:00,61.5,56.9,29.77,SSE,158,0.8,3.5,85,0.00,,,0.00,WUHU216HW,2013-01-18 14:40:00,
2013-01-18 09:41:00,61.5,56.9,29.76,SSE,158,0.8,3.5,85,0.00,,,0.00,WUHU216HW,2013-01-18 14:41:00,
2013-01-18 09:42:00,61.5,56.9,29.76,SSE,158,4.0,4.0,85,0.00,,,0.00,WUHU216HW,2013-01-18 14:42:00,
2013-01-18 09:43:00,38.6,34.2,30.15,West,270,0.0,0.8,84,0.00,,,0.63,WUHU216HW,2013-01-18 14:43:00,
2013-01-18 09:44:00,61.7,57.1,29.76,SSE,158,5.3,5.3,85,0.00,,,0.00,WUHU216HW,2013-01-18 14:44:00,
2013-01-18 09:45:00,61.7,57.1,29.76,SSE,158,5.3,5.3,85,0.00,,,0.00,WUHU216HW,2013-01-18 14:45:00,
2013-01-18 09:47:00,61.7,57.1,29.76,South,180,2.2,5.3,85,0.00,,,0.00,WUHU216HW,2013-01-18 14:47:00,
2013-01-18 09:48:00,40.2,35.4,30.16,West,270,0.0,0.0,83,0.00,,,0.63,WUHU216HW,2013-01-18 14:48:00,
2013-01-18 09:50:00,61.7,57.1,29.77,ESE,113,0.8,5.3,85,0.00,,,0.00,WUHU216HW,2013-01-18 14:50:00,
2013-01-18 09:52:00,61.7,57.1,29.76,ESE,113,0.8,5.3,85,0.00,,,0.00,WUHU216HW,2013-01-18 14:52:00,
2013-01-18 09:53:00,41.3,36.2,30.16,West,270,0.0,0.0,82,0.00,,,0.63,WUHU216HW,2013-01-18 14:53:00,
2013-01-18 09:58:00,42.4,36.0,30.16,West,270,0.0,0.0,78,0.00,,,0.63,WUHU216HW,2013-01-18 14:58:00,
2013-01-18 10:03:00,43.1,36.0,30.17,West,270,0.0,0.0,76,0.00,,,0.63,WUHU216HW,2013-01-18 15:03:00,
2013-01-18 10:09:00,43.8,36.7,30.17,West,270,0.0,0.0,76,0.02,,,0.65,WUHU216HW,2013-01-18 15:09:00,
2013-01-18 10:14:00,44.4,36.6,30.17,West,270,0.0,0.0,74,0.02,,,0.65,WUHU216HW,2013-01-18 15:14:00,
2013-01-18 10:19:00,44.7,37.3,30.17,West,270,0.0,0.0,75,0.02,,,0.65,WUHU216HW,2013-01-18 15:19:00,
2013-01-18 10:24:00,44.9,36.8,30.17,WNW,293,0.0,0.0,73,0.02,,,0.65,WUHU216HW,2013-01-18 15:24:00,
2013-01-18 10:29:00,44.7,35.6,30.17,West,270,0.0,0.0,71,0.04,,,0.67,WUHU216HW,2013-01-18 15:29:00,
2013-01-18 10:34:00,44.6,35.4,30.17,WNW,293,0.0,0.0,70,0.04,,,0.67,WUHU216HW,2013-01-18 15:34:00,
2013-01-18 10:39:00,44.4,35.6,30.17,NNW,338,0.0,0.0,70,0.04,,,0.67,WUHU216HW,2013-01-18 15:39:00,
2013-01-18 10:44:00,44.7,35.6,30.17,NW,315,0.0,0.0,70,0.04,,,0.67,WUHU216HW,2013-01-18 15:44:00,
2013-01-18 10:49:00,44.9,35.7,30.17,West,270,0.0,0.0,70,0.06,,,0.69,WUHU216HW,2013-01-18 15:49:00,
2013-01-18 10:54:00,45.1,35.1,30.17,WNW,293,0.0,0.0,68,0.06,,,0.69,WUHU216HW,2013-01-18 15:54:00,
2013-01-18 10:59:00,44.9,34.6,30.16,NW,315,0.0,0.0,67,0.08,,,0.71,WUHU216HW,2013-01-18 15:59:00,
2013-01-18 11:04:00,44.9,34.6,30.16,WNW,293,0.0,0.0,65,0.08,,,0.71,WUHU216HW,2013-01-18 16:04:00,
2013-01-18 11:10:00,44.9,34.6,30.17,NW,315,0.0,0.0,68,0.08,,,0.71,WUHU216HW,2013-01-18 16:10:00,
2013-01-18 11:15:00,45.1,34.0,30.17,WSW,248,0.0,0.0,67,0.08,,,0.71,WUHU216HW,2013-01-18 16:15:00,
2013-01-18 11:20:00,45.6,34.1,30.17,West,270,0.0,0.0,64,0.08,,,0.71,WUHU216HW,2013-01-18 16:20:00,
2013-01-18 11:25:00,45.8,35.1,30.17,West,270,0.0,0.0,66,0.08,,,0.73,WUHU216HW,2013-01-18 16:25:00,
2013-01-18 11:30:00,46.2,33.8,30.17,NNW,338,0.0,0.0,62,0.08,,,0.73,WUHU216HW,2013-01-18 16:30:00,
2013-01-18 11:36:00,46.2,33.8,30.17,West,270,0.0,3.3,62,0.08,,,0.75,WUHU216HW,2013-01-18 16:36:00,
2013-01-18 11:41:00,47.8,34.7,30.16,NNW,338,0.0,3.3,60,0.08,,,0.75,WUHU216HW,2013-01-18 16:41:00,
2013-01-18 11:46:00,49.4,35.2,30.16,WNW,293,0.0,1.3,58,0.10,,,0.77,WUHU216HW,2013-01-18 16:46:00,
2013-01-18 11:51:00,49.6,35.9,30.16,WSW,248,0.0,1.3,54,0.10,,,0.77,WUHU216HW,2013-01-18 16:51:00,
2013-01-18 11:56:00,49.4,35.2,30.16,WNW,293,0.0,2.9,58,0.10,,,0.79,WUHU216HW,2013-01-18 16:56:00,
2013-01-18 12:01:00,49.6,33.1,30.16,South,180,0.0,2.9,54,0.08,,,0.79,WUHU216HW,2013-01-18 17:01:00,
2013-01-18 12:06:00,50.0,34.8,30.16,WNW,293,0.0,0.0,56,0.08,,,0.79,WUHU216HW,2013-01-18 17:06:00,
2013-01-18 12:11:00,50.0,33.9,30.16,ESE,113,0.0,2.9,54,0.08,,,0.79,WUHU216HW,2013-01-18 17:11:00,
2013-01-18 12:16:00,50.1,33.2,30.16,WNW,293,0.0,2.9,52,0.10,,,0.81,WUHU216HW,2013-01-18 17:16:00,
2013-01-18 12:17:00,64.0,59.7,29.71,SW,225,3.5,9.3,86,0.00,,,0.00,WUHU216HW,2013-01-18 17:17:00,
2013-01-18 12:18:00,64.0,59.7,29.71,SSE,158,5.3,9.3,86,0.00,,,0.00,WUHU216HW,2013-01-18 17:18:00,
2013-01-18 12:19:00,64.0,59.7,29.71,ESE,113,4.4,9.3,86,0.00,,,0.00,WUHU216HW,2013-01-18 17:19:00,
2013-01-18 12:21:00,50.7,34.6,30.16,ESE,113,0.0,0.0,54,0.10,,,0.81,WUHU216HW,2013-01-18 17:21:00,
2013-01-18 12:23:00,64.0,59.7,29.71,WSW,248,5.5,9.3,86,0.00,,,0.00,WUHU216HW,2013-01-18 17:23:00,
2013-01-18 12:24:00,64.0,59.7,29.71,SSE,158,5.8,9.3,86,0.00,,,0.00,WUHU216HW,2013-01-18 17:24:00,
2013-01-18 12:25:00,64.0,59.7,29.71,South,180,9.1,9.1,86,0.00,,,0.00,WUHU216HW,2013-01-18 17:25:00,
2013-01-18 12:26:00,51.4,34.8,30.16,WNW,293,0.0,0.0,51,0.10,,,0.81,WUHU216HW,2013-01-18 17:26:00,
2013-01-18 12:27:00,64.0,59.7,29.71,SSE,158,4.0,9.1,86,0.00,,,0.00,WUHU216HW,2013-01-18 17:27:00,
2013-01-18 12:28:00,64.2,59.9,29.71,SSW,203,2.4,9.1,86,0.00,,,0.00,WUHU216HW,2013-01-18 17:28:00,
2013-01-18 12:29:00,64.2,59.9,29.71,SSW,203,2.4,9.1,86,0.00,,,0.00,WUHU216HW,2013-01-18 17:29:00,
2013-01-18 12:30:00,64.2,59.9,29.71,SSW,203,2.4,9.1,86,0.00,,,0.00,WUHU216HW,2013-01-18 17:30:00,
2013-01-18 12:31:00,51.9,35.3,30.16,WNW,293,0.0,0.0,53,0.10,,,0.81,WUHU216HW,2013-01-18 17:31:00,
2013-01-18 12:37:00,52.8,35.2,30.16,West,270,0.0,0.0,51,0.10,,,0.81,WUHU216HW,2013-01-18 17:37:00,
2013-01-18 12:42:00,54.3,35.5,30.16,West,270,0.0,0.0,49,0.10,,,0.81,WUHU216HW,2013-01-18 17:42:00,
2013-01-18 12:47:00,53.2,34.5,30.16,West,270,2.4,2.4,49,0.06,,,0.83,WUHU216HW,2013-01-18 17:47:00,
2013-01-18 12:52:00,53.4,32.4,30.16,NW,315,0.0,2.4,47,0.06,,,0.83,WUHU216HW,2013-01-18 17:52:00,
2013-01-18 12:54:00,64.2,59.9,29.70,SSE,158,0.0,5.1,86,0.00,,,0.00,WUHU216HW,2013-01-18 17:54:00,
2013-01-18 12:56:00,64.2,59.9,29.69,SSE,158,6.0,6.0,86,0.00,,,0.00,WUHU216HW,2013-01-18 17:56:00,
2013-01-18 12:57:00,53.9,34.6,30.15,North,0,0.0,2.4,48,0.06,,,0.83,WUHU216HW,2013-01-18 17:57:00,
2013-01-18 12:58:00,64.2,59.9,29.70,South,180,2.2,6.0,86,0.00,,,0.00,WUHU216HW,2013-01-18 17:58:00,
2013-01-18 12:59:00,64.2,59.9,29.70,SSE,158,4.6,6.0,86,0.00,,,0.00,WUHU216HW,2013-01-18 17:59:00,
2013-01-18 13:00:00,64.2,59.9,29.69,SSE,158,4.6,6.0,86,0.00,,,0.00,WUHU216HW,2013-01-18 18:00:00,
2013-01-18 13:02:00,53.9,33.5,30.15,WNW,293,0.0,0.0,46,0.04,,,0.83,WUHU216HW,2013-01-18 18:02:00,
2013-01-18 13:03:00,64.2,59.9,29.69,SE,135,4.2,6.0,86,0.00,,,0.00,WUHU216HW,2013-01-18 18:03:00,
2013-01-18 13:04:00,64.2,59.9,29.69,SE,135,4.2,6.0,86,0.00,,,0.00,WUHU216HW,2013-01-18 18:04:00,
2013-01-18 13:05:00,64.2,59.9,29.69,South,180,2.2,6.0,86,0.00,,,0.00,WUHU216HW,2013-01-18 18:05:00,
2013-01-18 13:06:00,64.2,59.9,29.69,South,180,2.2,4.6,86,0.00,,,0.00,WUHU216HW,2013-01-18 18:06:00,
2013-01-18 13:07:00,64.2,59.9,29.69,South,180,2.2,4.6,86,0.00,,,0.00,WUHU216HW,2013-01-18 18:07:00,
2013-01-18 13:08:00,53.0,32.1,30.15,West,270,0.0,0.0,45,0.04,,,0.83,WUHU216HW,2013-01-18 18:08:00,
2013-01-18 13:10:00,64.4,60.1,29.69,SSE,158,2.6,4.6,86,0.00,,,0.00,WUHU216HW,2013-01-18 18:10:00,
2013-01-18 13:11:00,64.4,60.1,29.69,SSE,158,2.6,4.2,86,0.00,,,0.00,WUHU216HW,2013-01-18 18:11:00,
2013-01-18 13:12:00,64.4,60.1,29.69,SSW,203,3.1,4.2,86,0.00,,,0.00,WUHU216HW,2013-01-18 18:12:00,
2013-01-18 13:13:00,51.9,31.7,30.16,NW,315,0.0,0.0,48,0.04,,,0.83,WUHU216HW,2013-01-18 18:13:00,
2013-01-18 13:14:00,64.4,60.1,29.69,SE,135,2.9,4.2,86,0.00,,,0.00,WUHU216HW,2013-01-18 18:14:00,
2013-01-18 13:15:00,64.4,60.1,29.69,SE,135,2.9,3.1,86,0.00,,,0.00,WUHU216HW,2013-01-18 18:15:00,
2013-01-18 13:17:00,64.4,60.1,29.69,West,270,4.6,4.6,86,0.00,,,0.00,WUHU216HW,2013-01-18 18:17:00,
2013-01-18 13:18:00,52.7,33.4,30.16,WNW,293,0.0,0.0,48,0.04,,,0.83,WUHU216HW,2013-01-18 18:18:00,
2013-01-18 13:19:00,64.4,60.1,29.69,SW,225,1.5,4.6,86,0.00,,,0.00,WUHU216HW,2013-01-18 18:19:00,
2013-01-18 13:20:00,64.4,60.1,29.69,SSE,158,2.9,4.6,86,0.00,,,0.00,WUHU216HW,2013-01-18 18:20:00,
2013-01-18 13:21:00,64.4,60.1,29.69,SSE,158,2.9,4.6,86,0.00,,,0.00,WUHU216HW,2013-01-18 18:21:00,
2013-01-18 13:23:00,53.2,35.5,30.16,WSW,248,0.0,0.0,51,0.04,,,0.83,WUHU216HW,2013-01-18 18:23:00,
2013-01-18 13:28:00,54.1,33.1,30.16,NNE,23,3.3,3.3,45,0.04,,,0.83,WUHU216HW,2013-01-18 18:28:00,
2013-01-18 13:33:00,52.7,31.8,30.16,ESE,113,0.0,3.3,45,0.04,,,0.83,WUHU216HW,2013-01-18 18:33:00,
2013-01-18 13:38:00,53.2,32.8,30.16,West,270,0.0,3.3,46,0.04,,,0.83,WUHU216HW,2013-01-18 18:38:00,
2013-01-18 13:43:00,52.7,30.7,30.16,WSW,248,0.0,0.0,43,0.04,,,0.83,WUHU216HW,2013-01-18 18:43:00,
2013-01-18 13:49:00,53.2,32.3,30.16,NNW,338,0.0,0.0,46,0.04,,,0.83,WUHU216HW,2013-01-18 18:49:00,
2013-01-18 13:54:00,53.2,31.7,30.16,WNW,293,0.0,0.0,44,0.04,,,0.83,WUHU216HW,2013-01-18 18:54:00,
2013-01-18 13:59:00,52.1,30.7,30.16,NNW,338,0.0,0.0,44,0.04,,,0.83,WUHU216HW,2013-01-18 18:59:00,
2013-01-18 14:04:00,51.2,29.9,30.16,West,270,0.0,0.0,44,0.00,,,0.83,WUHU216HW,2013-01-18 19:04:00,
2013-01-18 14:09:00,51.4,31.2,30.16,WNW,293,0.0,0.0,46,0.00,,,0.83,WUHU216HW,2013-01-18 19:09:00,
2013-01-18 14:14:00,52.1,30.7,30.16,WNW,293,0.0,0.0,44,0.00,,,0.83,WUHU216HW,2013-01-18 19:14:00,
2013-01-18 14:19:00,52.7,30.7,30.16,WNW,293,4.2,4.2,43,0.00,,,0.83,WUHU216HW,2013-01-18 19:19:00,
2013-01-18 14:24:00,53.0,31.5,30.16,WNW,293,0.0,4.2,44,0.00,,,0.83,WUHU216HW,2013-01-18 19:24:00,
2013-01-18 14:29:00,52.7,31.2,30.16,NE,45,0.0,4.2,44,0.00,,,0.83,WUHU216HW,2013-01-18 19:29:00,
2013-01-18 14:35:00,52.8,31.9,30.16,NE,45,0.0,0.0,43,0.00,,,0.83,WUHU216HW,2013-01-18 19:35:00,
2013-01-18 14:40:00,51.9,31.1,30.16,WNW,293,0.0,0.0,45,0.00,,,0.83,WUHU216HW,2013-01-18 19:40:00,
2013-01-18 14:45:00,50.9,30.2,30.16,NNW,338,0.0,0.0,45,0.00,,,0.83,WUHU216HW,2013-01-18 19:45:00,
2013-01-18 14:50:00,50.9,30.2,30.16,ENE,68,0.0,0.0,45,0.00,,,0.83,WUHU216HW,2013-01-18 19:50:00,
2013-01-18 14:55:00,50.3,29.7,30.16,North,0,0.0,0.0,45,0.00,,,0.83,WUHU216HW,2013-01-18 19:55:00,
2013-01-18 15:00:00,50.0,29.9,30.16,ENE,68,0.0,0.0,46,0.00,,,0.83,WUHU216HW,2013-01-18 20:00:00,
2013-01-18 15:05:00,49.6,29.6,30.16,NW,315,0.0,0.0,46,0.00,,,0.83,WUHU216HW,2013-01-18 20:05:00,
2013-01-18 15:11:00,48.3,28.9,30.16,NW,315,0.0,0.0,47,0.00,,,0.83,WUHU216HW,2013-01-18 20:11:00,
2013-01-18 15:16:00,48.0,28.6,30.16,WSW,248,0.0,0.0,49,0.00,,,0.83,WUHU216HW,2013-01-18 20:16:00,
2013-01-18 15:22:00,48.5,29.1,30.16,WNW,293,0.0,0.0,47,0.00,,,0.83,WUHU216HW,2013-01-18 20:22:00,
2013-01-18 15:27:00,48.3,28.9,30.16,WNW,293,0.0,1.1,47,0.00,,,0.83,WUHU216HW,2013-01-18 20:27:00,
2013-01-18 15:32:00,48.2,28.7,30.16,NE,45,0.0,1.1,47,0.00,,,0.83,WUHU216HW,2013-01-18 20:32:00,
2013-01-18 15:37:00,47.8,27.8,30.16,ESE,113,0.0,0.0,47,0.00,,,0.83,WUHU216HW,2013-01-18 20:37:00,
2013-01-18 15:42:00,47.8,27.8,30.16,WNW,293,0.0,0.0,47,0.00,,,0.00,WUHU216HW,2013-01-18 20:42:00,
2013-01-18 15:47:00,47.4,28.1,30.16,NW,315,0.0,0.0,47,0.00,,,0.00,WUHU216HW,2013-01-18 20:47:00,
2013-01-18 15:52:00,48.0,29.1,30.16,NW,315,0.0,0.0,48,0.00,,,0.00,WUHU216HW,2013-01-18 20:52:00,
2013-01-18 15:57:00,48.2,28.7,30.16,NW,315,0.0,0.0,47,0.00,,,0.00,WUHU216HW,2013-01-18 20:57:00,
2013-01-18 16:02:00,48.5,29.1,30.17,SW,225,0.0,0.0,47,0.00,,,0.00,WUHU216HW,2013-01-18 21:02:00,
2013-01-18 16:07:00,48.3,28.3,30.17,NNW,338,0.0,0.0,47,0.00,,,0.00,WUHU216HW,2013-01-18 21:07:00,
2013-01-18 16:12:00,48.0,28.6,30.17,NNE,23,0.0,0.0,47,0.00,,,0.00,WUHU216HW,2013-01-18 21:12:00,
2013-01-18 16:17:00,47.6,28.8,30.17,NW,315,0.0,0.0,48,0.00,,,0.00,WUHU216HW,2013-01-18 21:17:00,
2013-01-18 16:22:00,47.1,27.7,30.17,NW,315,0.0,0.0,47,0.00,,,0.00,WUHU216HW,2013-01-18 21:22:00,
2013-01-18 16:27:00,46.9,28.1,30.18,NW,315,0.0,0.0,48,0.00,,,0.00,WUHU216HW,2013-01-18 21:27:00,
2013-01-18 16:33:00,46.5,27.8,30.18,WNW,293,0.0,0.0,49,0.00,,,0.00,WUHU216HW,2013-01-18 21:33:00,
2013-01-18 16:38:00,46.0,28.4,30.17,WNW,293,0.0,0.0,50,0.00,,,0.00,WUHU216HW,2013-01-18 21:38:00,
2013-01-18 16:43:00,45.6,29.0,30.18,NW,315,0.0,0.0,52,0.00,,,0.00,WUHU216HW,2013-01-18 21:43:00,
2013-01-18 16:48:00,45.5,28.8,30.18,NW,315,0.0,0.0,52,0.00,,,0.00,WUHU216HW,2013-01-18 21:48:00,
2013-01-18 16:54:00,45.1,28.5,30.18,WNW,293,0.0,0.0,52,0.00,,,0.00,WUHU216HW,2013-01-18 21:54:00,
2013-01-18 16:59:00,45.1,28.5,30.19,WNW,293,0.0,0.0,54,0.00,,,0.00,WUHU216HW,2013-01-18 21:59:00,
2013-01-18 17:04:00,44.9,29.2,30.18,WNW,293,0.0,0.0,54,0.00,,,0.00,WUHU216HW,2013-01-18 22:04:00,
2013-01-18 17:09:00,44.6,28.9,30.20,NW,315,0.0,0.0,54,0.00,,,0.00,WUHU216HW,2013-01-18 22:09:00,
2013-01-18 17:14:00,44.4,28.7,30.20,NW,315,0.0,0.0,55,0.00,,,0.00,WUHU216HW,2013-01-18 22:14:00,
2013-01-18 17:19:00,44.2,29.0,30.20,NW,315,0.0,0.0,57,0.00,,,0.00,WUHU216HW,2013-01-18 22:19:00,
2013-01-18 17:24:00,43.7,29.4,30.20,NW,315,0.0,0.0,57,0.00,,,0.00,WUHU216HW,2013-01-18 22:24:00,
2013-01-18 17:30:00,43.3,29.0,30.20,NW,315,0.0,0.0,57,0.00,,,0.00,WUHU216HW,2013-01-18 22:30:00,
2013-01-18 17:35:00,42.9,29.5,30.21,NW,315,0.0,0.0,59,0.00,,,0.00,WUHU216HW,2013-01-18 22:35:00,
2013-01-18 17:40:00,42.8,28.9,30.21,NW,315,0.0,0.0,58,0.00,,,0.00,WUHU216HW,2013-01-18 22:40:00,
2013-01-18 17:45:00,42.0,29.1,30.21,NW,315,0.0,0.0,60,0.00,,,0.00,WUHU216HW,2013-01-18 22:45:00,
2013-01-18 17:50:00,41.9,29.4,30.21,NW,315,0.0,0.0,61,0.00,,,0.00,WUHU216HW,2013-01-18 22:50:00,
2013-01-18 17:55:00,41.3,29.6,30.21,NW,315,0.0,0.0,63,0.00,,,0.00,WUHU216HW,2013-01-18 22:55:00,
2013-01-18 18:00:00,40.8,29.5,30.22,NW,315,0.0,0.0,64,0.00,,,0.00,WUHU216HW,2013-01-18 23:00:00,
2013-01-18 18:06:00,40.6,29.3,30.22,NW,315,0.0,0.0,64,0.00,,,0.00,WUHU216HW,2013-01-18 23:06:00,
2013-01-18 18:11:00,40.6,29.3,30.22,NW,315,0.0,0.0,65,0.00,,,0.00,WUHU216HW,2013-01-18 23:11:00,
2013-01-18 18:16:00,40.2,29.7,30.22,NW,315,0.0,0.0,66,0.00,,,0.00,WUHU216HW,2013-01-18 23:16:00,
2013-01-18 18:21:00,39.7,29.6,30.22,NW,315,0.0,0.0,67,0.00,,,0.00,WUHU216HW,2013-01-18 23:21:00,
2013-01-18 18:26:00,39.5,29.8,30.22,NW,315,0.0,0.0,68,0.00,,,0.00,WUHU216HW,2013-01-18 23:26:00,
2013-01-18 18:31:00,39.0,29.6,30.22,NW,315,0.0,0.0,69,0.00,,,0.00,WUHU216HW,2013-01-18 23:31:00,
2013-01-18 18:36:00,38.8,29.5,30.21,NW,315,0.0,0.0,69,0.00,,,0.00,WUHU216HW,2013-01-18 23:36:00,
2013-01-18 18:42:00,38.4,29.5,30.23,NW,315,0.0,0.0,70,0.00,,,0.00,WUHU216HW,2013-01-18 23:42:00,
2013-01-18 18:47:00,38.4,29.5,30.22,NW,315,0.0,0.0,71,0.00,,,0.00,WUHU216HW,2013-01-18 23:47:00,
2013-01-18 18:52:00,38.1,29.5,30.23,NW,315,0.0,0.0,71,0.00,,,0.00,WUHU216HW,2013-01-18 23:52:00,
2013-01-18 18:57:00,37.9,29.7,30.22,NW,315,0.0,0.0,72,0.00,,,0.00,WUHU216HW,2013-01-18 23:57:00,
2013-01-18 19:02:00,37.9,29.7,30.23,NW,315,0.0,0.0,72,0.00,,,0.00,WUHU216HW,2013-01-19 00:02:00,
2013-01-18 19:07:00,37.7,29.5,30.23,NW,315,0.0,0.0,72,0.00,,,0.00,WUHU216HW,2013-01-19 00:07:00,
2013-01-18 19:08:00,67.6,61.9,29.59,ESE,113,1.5,7.6,82,0.00,,,0.00,WUHU216HW,2013-01-19 00:08:00,
2013-01-18 19:09:00,67.6,61.9,29.60,ESE,113,1.5,7.6,82,0.00,,,0.00,WUHU216HW,2013-01-19 00:09:00,
2013-01-18 19:10:00,67.6,61.9,29.60,SE,135,6.7,7.6,82,0.00,,,0.00,WUHU216HW,2013-01-19 00:10:00,
2013-01-18 19:11:00,67.8,62.1,29.60,South,180,7.1,7.6,82,0.00,,,0.00,WUHU216HW,2013-01-19 00:11:00,
2013-01-18 19:12:00,37.7,29.8,30.23,NW,315,0.0,0.0,73,0.00,,,0.00,WUHU216HW,2013-01-19 00:12:00,
2013-01-18 19:13:00,67.8,62.1,29.60,SE,135,6.4,7.6,82,0.00,,,0.00,WUHU216HW,2013-01-19 00:13:00,
2013-01-18 19:14:00,67.8,62.1,29.60,SW,225,6.4,7.6,82,0.00,,,0.00,WUHU216HW,2013-01-19 00:14:00,
2013-01-18 19:15:00,67.8,62.1,29.60,SSE,158,5.8,7.6,82,0.00,,,0.00,WUHU216HW,2013-01-19 00:15:00,
2013-01-18 19:16:00,67.8,62.1,29.60,South,180,3.3,7.6,82,0.00,,,0.00,WUHU216HW,2013-01-19 00:16:00,
2013-01-18 19:17:00,37.5,29.7,30.23,NW,315,0.0,0.0,73,0.00,,,0.00,WUHU216HW,2013-01-19 00:17:00,
2013-01-18 19:18:00,67.8,62.1,29.60,South,180,3.3,7.6,82,0.00,,,0.00,WUHU216HW,2013-01-19 00:18:00,
2013-01-18 19:19:00,68.0,62.3,29.60,WSW,248,5.1,7.6,82,0.00,,,0.00,WUHU216HW,2013-01-19 00:19:00,
2013-01-18 19:20:00,68.0,62.3,29.61,SSW,203,3.8,7.6,82,0.00,,,0.00,WUHU216HW,2013-01-19 00:20:00,
2013-01-18 19:21:00,68.0,62.3,29.60,SSE,158,5.8,7.6,82,0.00,,,0.00,WUHU216HW,2013-01-19 00:21:00,
2013-01-18 19:22:00,37.2,29.6,30.23,NW,315,0.0,0.0,74,0.00,,,0.00,WUHU216HW,2013-01-19 00:22:00,
2013-01-18 19:23:00,68.1,62.1,29.60,SE,135,4.0,7.6,81,0.00,,,0.00,WUHU216HW,2013-01-19 00:23:00,
2013-01-18 19:24:00,68.1,62.1,29.60,East,90,2.2,6.9,81,0.00,,,0.00,WUHU216HW,2013-01-19 00:24:00,
2013-01-18 19:25:00,68.1,62.1,29.60,East,90,2.2,6.9,81,0.00,,,0.00,WUHU216HW,2013-01-19 00:25:00,
2013-01-18 19:26:00,68.1,62.1,29.60,WSW,248,6.4,6.9,81,0.00,,,0.00,WUHU216HW,2013-01-19 00:26:00,
2013-01-18 19:27:00,37.0,29.5,30.22,NW,315,0.0,0.0,74,0.00,,,0.00,WUHU216HW,2013-01-19 00:27:00,
2013-01-18 19:32:00,36.6,29.1,30.22,NW,315,0.0,0.0,74,0.00,,,0.00,WUHU216HW,2013-01-19 00:32:00,
2013-01-18 19:38:00,36.6,29.1,30.23,NW,315,0.0,0.0,75,0.00,,,0.00,WUHU216HW,2013-01-19 00:38:00,
2013-01-18 19:43:00,36.5,29.3,30.23,NW,315,0.0,0.0,75,0.00,,,0.00,WUHU216HW,2013-01-19 00:43:00,
2013-01-18 19:48:00,36.3,29.1,30.23,NW,315,0.0,0.0,75,0.00,,,0.00,WUHU216HW,2013-01-19 00:48:00,
2013-01-18 19:51:00,68.3,62.3,29.59,ESE,113,3.3,10.2,81,0.00,,,0.00,WUHU216HW,2013-01-19 00:51:00,
2013-01-18 19:53:00,36.1,29.2,30.23,NW,315,0.0,0.0,75,0.00,,,0.00,WUHU216HW,2013-01-19 00:53:00,
2013-01-18 19:54:00,68.3,62.3,29.59,SSE,158,4.2,10.2,81,0.00,,,0.00,WUHU216HW,2013-01-19 00:54:00,
2013-01-18 19:55:00,68.3,62.3,29.59,SSE,158,4.2,10.2,81,0.00,,,0.00,WUHU216HW,2013-01-19 00:55:00,
2013-01-18 19:56:00,68.1,62.1,29.59,South,180,7.6,10.2,81,0.00,,,0.00,WUHU216HW,2013-01-19 00:56:00,
2013-01-18 19:57:00,68.3,62.3,29.59,SE,135,9.3,10.2,81,0.00,,,0.00,WUHU216HW,2013-01-19 00:57:00,
2013-01-18 19:58:00,68.3,62.3,29.59,South,180,8.2,9.3,81,0.00,,,0.00,WUHU216HW,2013-01-19 00:58:00,
2013-01-18 19:59:00,35.7,28.9,30.23,NW,315,0.0,0.0,76,0.00,,,0.00,WUHU216HW,2013-01-19 00:59:00,
2013-01-18 20:00:00,68.1,62.1,29.59,ESE,113,3.5,9.3,82,0.00,,,0.00,WUHU216HW,2013-01-19 01:00:00,
2013-01-18 20:01:00,68.1,62.5,29.59,SE,135,8.2,9.3,82,0.00,,,0.00,WUHU216HW,2013-01-19 01:01:00,
2013-01-18 20:02:00,68.1,62.5,29.58,SW,225,3.8,9.3,82,0.00,,,0.00,WUHU216HW,2013-01-19 01:02:00,
2013-01-18 20:03:00,68.0,62.6,29.58,SSW,203,3.1,9.3,83,0.00,,,0.00,WUHU216HW,2013-01-19 01:03:00,
2013-01-18 20:04:00,35.7,28.9,30.23,NW,315,0.0,0.0,76,0.00,,,0.00,WUHU216HW,2013-01-19 01:04:00,
2013-01-18 20:05:00,68.0,62.6,29.58,SSW,203,3.1,9.3,83,0.00,,,0.00,WUHU216HW,2013-01-19 01:05:00,
2013-01-18 20:07:00,67.8,62.4,29.58,WSW,248,5.5,8.2,83,0.00,,,0.00,WUHU216HW,2013-01-19 01:07:00,
2013-01-18 20:08:00,67.8,62.4,29.58,SSE,158,8.5,8.5,83,0.00,,,0.00,WUHU216HW,2013-01-19 01:08:00,
2013-01-18 20:09:00,35.4,28.8,30.23,NW,315,0.0,0.0,77,0.00,,,0.00,WUHU216HW,2013-01-19 01:09:00,
2013-01-18 20:10:00,67.8,62.8,29.57,SW,225,5.1,8.5,84,0.00,,,0.00,WUHU216HW,2013-01-19 01:10:00,
2013-01-18 20:11:00,67.6,62.6,29.57,SE,135,4.6,8.5,84,0.00,,,0.00,WUHU216HW,2013-01-19 01:11:00,
2013-01-18 20:12:00,67.6,62.6,29.57,SW,225,2.6,8.5,84,0.00,,,0.00,WUHU216HW,2013-01-19 01:12:00,
2013-01-18 20:13:00,67.6,62.6,29.57,SW,225,2.6,8.5,84,0.00,,,0.00,WUHU216HW,2013-01-19 01:13:00,
2013-01-18 20:14:00,35.4,28.8,30.23,NW,315,0.0,0.0,78,0.00,,,0.00,WUHU216HW,2013-01-19 01:14:00,
2013-01-18 20:15:00,67.2,62.6,29.57,SSE,158,1.5,8.5,85,0.00,,,0.00,WUHU216HW,2013-01-19 01:15:00,
2013-01-18 20:16:00,67.2,62.6,29.57,SSE,158,1.5,8.5,85,0.00,,,0.00,WUHU216HW,2013-01-19 01:16:00,
2013-01-18 20:19:00,35.2,29.0,30.23,NW,315,0.0,0.0,78,0.00,,,0.00,WUHU216HW,2013-01-19 01:19:00,
2013-01-18 20:24:00,35.2,29.0,30.23,NW,315,0.0,0.0,78,0.00,,,0.00,WUHU216HW,2013-01-19 01:24:00,
2013-01-18 20:29:00,34.8,28.6,30.23,NW,315,0.0,0.0,78,0.00,,,0.00,WUHU216HW,2013-01-19 01:29:00,
2013-01-18 20:35:00,34.8,28.6,30.24,NW,315,0.0,0.0,79,0.00,,,0.00,WUHU216HW,2013-01-19 01:35:00,
2013-01-18 20:40:00,34.7,28.7,30.24,NW,315,0.0,0.0,79,0.00,,,0.00,WUHU216HW,2013-01-19 01:40:00,
2013-01-18 20:45:00,34.5,28.6,30.24,NW,315,0.0,0.0,79,0.00,,,0.00,WUHU216HW,2013-01-19 01:45:00,
2013-01-18 20:50:00,34.5,28.6,30.24,NW,315,0.0,0.0,80,0.00,,,0.00,WUHU216HW,2013-01-19 01:50:00,
2013-01-18 20:51:00,67.6,62.3,29.53,South,180,6.0,11.6,83,0.00,,,0.00,WUHU216HW,2013-01-19 01:51:00,
2013-01-18 20:52:00,67.6,62.3,29.53,ESE,113,4.9,11.6,83,0.00,,,0.00,WUHU216HW,2013-01-19 01:52:00,
2013-01-18 20:53:00,67.6,62.3,29.53,SSE,158,12.0,12.0,83,0.00,,,0.00,WUHU216HW,2013-01-19 01:53:00,
2013-01-18 20:54:00,67.6,62.3,29.53,ESE,113,8.0,12.0,83,0.00,,,0.00,WUHU216HW,2013-01-19 01:54:00,
2013-01-18 20:55:00,34.5,28.6,30.24,NW,315,0.0,0.0,80,0.00,,,0.00,WUHU216HW,2013-01-19 01:55:00,
2013-01-18 20:56:00,67.6,62.3,29.53,WSW,248,2.4,12.0,83,0.00,,,0.00,WUHU216HW,2013-01-19 01:56:00,
2013-01-18 20:57:00,67.6,62.3,29.53,WSW,248,2.4,12.0,83,0.00,,,0.00,WUHU216HW,2013-01-19 01:57:00,
2013-01-18 20:58:00,67.6,62.3,29.53,WSW,248,2.4,12.0,83,0.00,,,0.00,WUHU216HW,2013-01-19 01:58:00,
2013-01-18 20:59:00,67.6,62.3,29.53,WSW,248,7.3,12.0,83,0.00,,,0.00,WUHU216HW,2013-01-19 01:59:00,
2013-01-18 21:00:00,34.5,28.6,30.23,NW,315,0.0,0.0,80,0.00,,,0.00,WUHU216HW,2013-01-19 02:00:00,
2013-01-18 21:02:00,67.6,62.3,29.53,South,180,5.5,12.0,83,0.00,,,0.00,WUHU216HW,2013-01-19 02:02:00,
2013-01-18 21:03:00,67.6,62.6,29.53,SW,225,2.4,8.0,84,0.00,,,0.00,WUHU216HW,2013-01-19 02:03:00,
2013-01-18 21:04:00,67.6,62.3,29.52,ESE,113,7.1,8.0,83,0.00,,,0.00,WUHU216HW,2013-01-19 02:04:00,
2013-01-18 21:06:00,34.5,28.6,30.23,NW,315,0.0,0.0,80,0.00,,,0.00,WUHU216HW,2013-01-19 02:06:00,
2013-01-18 21:11:00,34.3,28.7,30.24,NW,315,0.0,0.0,80,0.00,,,0.00,WUHU216HW,2013-01-19 02:11:00,
2013-01-18 21:12:00,67.6,62.6,29.53,SSW,203,4.9,10.0,84,0.00,,,0.00,WUHU216HW,2013-01-19 02:12:00,
2013-01-18 21:13:00,67.6,62.6,29.53,SW,225,4.6,10.0,84,0.00,,,0.00,WUHU216HW,2013-01-19 02:13:00,
2013-01-18 21:14:00,67.6,62.6,29.53,WSW,248,6.7,10.0,84,0.00,,,0.00,WUHU216HW,2013-01-19 02:14:00,
2013-01-18 21:15:00,67.6,62.6,29.53,SSE,158,6.4,10.0,84,0.00,,,0.00,WUHU216HW,2013-01-19 02:15:00,
2013-01-18 21:16:00,33.9,28.6,30.24,NW,315,0.0,0.0,81,0.00,,,0.00,WUHU216HW,2013-01-19 02:16:00,
2013-01-18 21:17:00,67.6,62.6,29.53,SSE,158,7.1,10.0,84,0.00,,,0.00,WUHU216HW,2013-01-19 02:17:00,
2013-01-18 21:18:00,67.6,62.6,29.53,SSE,158,6.2,10.0,84,0.00,,,0.00,WUHU216HW,2013-01-19 02:18:00,
2013-01-18 21:19:00,67.6,62.6,29.52,SSE,158,5.3,9.8,84,0.00,,,0.00,WUHU216HW,2013-01-19 02:19:00,
2013-01-18 21:21:00,67.6,62.6,29.52,ESE,113,3.1,7.6,84,0.00,,,0.00,WUHU216HW,2013-01-19 02:21:00,
2013-01-18 21:22:00,33.9,28.6,30.23,NW,315,0.0,0.0,81,0.00,,,0.00,WUHU216HW,2013-01-19 02:22:00,
2013-01-18 21:23:00,67.6,62.6,29.52,ESE,113,3.1,7.6,84,0.00,,,0.00,WUHU216HW,2013-01-19 02:23:00,
2013-01-18 21:24:00,67.6,62.6,29.52,South,180,1.5,7.6,84,0.00,,,0.00,WUHU216HW,2013-01-19 02:24:00,
2013-01-18 21:26:00,67.6,62.6,29.52,SSW,203,8.0,8.0,84,0.00,,,0.00,WUHU216HW,2013-01-19 02:26:00,
2013-01-18 21:27:00,33.6,28.3,30.23,NW,315,0.0,0.0,81,0.00,,,0.00,WUHU216HW,2013-01-19 02:27:00,
2013-01-18 21:29:00,67.8,62.8,29.51,SSE,158,14.0,14.0,84,0.00,,,0.00,WUHU216HW,2013-01-19 02:29:00,
2013-01-18 21:31:00,67.8,62.8,29.51,SSE,158,6.2,14.0,84,0.00,,,0.00,WUHU216HW,2013-01-19 02:31:00,
2013-01-18 21:32:00,33.4,28.1,30.23,NW,315,0.0,0.0,81,0.00,,,0.00,WUHU216HW,2013-01-19 02:32:00,
2013-01-18 21:33:00,67.8,62.8,29.51,SSE,158,3.5,14.0,84,0.00,,,0.00,WUHU216HW,2013-01-19 02:33:00,
2013-01-18 21:35:00,67.8,62.8,29.51,SSE,158,1.7,14.0,84,0.00,,,0.00,WUHU216HW,2013-01-19 02:35:00,
2013-01-18 21:36:00,67.8,62.8,29.51,SSE,158,1.7,14.0,84,0.00,,,0.00,WUHU216HW,2013-01-19 02:36:00,
2013-01-18 21:37:00,33.4,28.1,30.23,NW,315,0.0,0.0,81,0.00,,,0.00,WUHU216HW,2013-01-19 02:37:00,
2013-01-18 21:38:00,67.8,62.8,29.51,SW,225,11.6,14.0,84,0.00,,,0.00,WUHU216HW,2013-01-19 02:38:00,
2013-01-18 21:40:00,68.0,62.6,29.51,SSW,203,8.9,11.6,83,0.00,,,0.00,WUHU216HW,2013-01-19 02:40:00,
2013-01-18 21:41:00,68.1,62.8,29.51,SSW,203,6.2,11.6,83,0.00,,,0.00,WUHU216HW,2013-01-19 02:41:00,
2013-01-18 21:42:00,33.0,28.1,30.23,NW,315,0.0,0.0,82,0.00,,,0.00,WUHU216HW,2013-01-19 02:42:00,
2013-01-18 21:47:00,33.0,28.1,30.23,NW,315,0.0,0.0,82,0.00,,,0.00,WUHU216HW,2013-01-19 02:47:00,
2013-01-18 21:53:00,33.0,28.1,30.23,NW,315,0.0,0.0,82,0.00,,,0.00,WUHU216HW,2013-01-19 02:53:00,
2013-01-18 21:58:00,33.0,28.1,30.23,NW,315,0.0,0.0,82,0.00,,,0.00,WUHU216HW,2013-01-19 02:58:00,
2013-01-18 22:04:00,32.7,28.1,30.23,NW,315,0.0,0.0,83,0.00,,,0.00,WUHU216HW,2013-01-19 03:04:00,
2013-01-18 22:09:00,32.7,28.1,30.23,NW,315,0.0,0.0,83,0.00,,,0.00,WUHU216HW,2013-01-19 03:09:00,
2013-01-18 22:11:00,68.1,62.8,29.49,ESE,113,3.5,8.2,83,0.00,,,0.00,WUHU216HW,2013-01-19 03:11:00,
2013-01-18 22:12:00,68.1,62.8,29.49,SSW,203,2.0,8.2,83,0.00,,,0.00,WUHU216HW,2013-01-19 03:12:00,
2013-01-18 22:13:00,68.1,62.8,29.49,SSW,203,2.0,8.2,83,0.00,,,0.00,WUHU216HW,2013-01-19 03:13:00,
2013-01-18 22:14:00,32.5,27.9,30.23,NW,315,0.0,0.0,83,0.00,,,0.00,WUHU216HW,2013-01-19 03:14:00,
2013-01-18 22:15:00,68.3,63.0,29.48,SSW,203,3.5,8.2,83,0.00,,,0.00,WUHU216HW,2013-01-19 03:15:00,
2013-01-18 22:16:00,68.3,63.0,29.48,SSW,203,3.5,8.2,83,0.00,,,0.00,WUHU216HW,2013-01-19 03:16:00,
2013-01-18 22:17:00,68.3,63.0,29.48,SSE,158,3.3,7.6,83,0.00,,,0.00,WUHU216HW,2013-01-19 03:17:00,
2013-01-18 22:18:00,68.3,63.0,29.48,SSE,158,3.3,7.6,83,0.00,,,0.00,WUHU216HW,2013-01-19 03:18:00,
2013-01-18 22:19:00,32.5,27.9,30.23,NW,315,0.0,0.0,84,0.00,,,0.00,WUHU216HW,2013-01-19 03:19:00,
2013-01-18 22:20:00,68.5,63.1,29.48,ESE,113,4.0,8.7,83,0.00,,,0.00,WUHU216HW,2013-01-19 03:20:00,
2013-01-18 22:22:00,68.5,62.8,29.47,ESE,113,3.8,8.7,82,0.00,,,0.00,WUHU216HW,2013-01-19 03:22:00,
2013-01-18 22:23:00,68.5,62.8,29.47,ESE,113,10.2,10.2,82,0.00,,,0.00,WUHU216HW,2013-01-19 03:23:00,
2013-01-18 22:24:00,68.5,62.8,29.47,SW,225,4.6,10.2,82,0.00,,,0.00,WUHU216HW,2013-01-19 03:24:00,
2013-01-18 22:25:00,32.3,28.0,30.23,NW,315,0.0,0.0,84,0.00,,,0.00,WUHU216HW,2013-01-19 03:25:00,
2013-01-18 22:31:00,32.3,28.0,30.23,NW,315,0.0,0.0,84,0.00,,,0.00,WUHU216HW,2013-01-19 03:31:00,
2013-01-18 22:34:00,68.9,63.1,29.47,SSW,203,3.1,7.6,82,0.00,,,0.00,WUHU216HW,2013-01-19 03:34:00,
2013-01-18 22:35:00,68.9,63.1,29.47,SSW,203,3.1,7.6,82,0.00,,,0.00,WUHU216HW,2013-01-19 03:35:00,
2013-01-18 22:36:00,32.1,27.9,30.22,NW,315,0.0,0.0,84,0.00,,,0.00,WUHU216HW,2013-01-19 03:36:00,
2013-01-18 22:37:00,69.0,63.3,29.46,SE,135,4.4,7.3,82,0.00,,,0.00,WUHU216HW,2013-01-19 03:37:00,
2013-01-18 22:38:00,69.0,63.3,29.46,SE,135,6.7,9.3,82,0.00,,,0.00,WUHU216HW,2013-01-19 03:38:00,
2013-01-18 22:39:00,69.2,63.5,29.46,SE,135,4.6,9.3,82,0.00,,,0.00,WUHU216HW,2013-01-19 03:39:00,
2013-01-18 22:41:00,32.0,27.7,30.23,NW,315,0.0,0.0,84,0.00,,,0.00,WUHU216HW,2013-01-19 03:41:00,
2013-01-18 22:44:00,69.4,63.6,29.46,South,180,1.5,9.3,82,0.00,,,0.00,WUHU216HW,2013-01-19 03:44:00,
2013-01-18 22:45:00,69.4,63.6,29.46,South,180,1.5,9.3,82,0.00,,,0.00,WUHU216HW,2013-01-19 03:45:00,
2013-01-18 22:46:00,31.8,27.5,30.22,NW,315,0.0,0.0,84,0.00,,,0.00,WUHU216HW,2013-01-19 03:46:00,
2013-01-18 22:47:00,69.2,63.5,29.45,SSW,203,3.5,9.3,82,0.00,,,0.00,WUHU216HW,2013-01-19 03:47:00,
2013-01-18 22:49:00,69.2,63.5,29.45,ESE,113,0.0,7.1,82,0.00,,,0.00,WUHU216HW,2013-01-19 03:49:00,
2013-01-18 22:50:00,69.4,63.6,29.45,SE,135,11.1,11.1,82,0.00,,,0.00,WUHU216HW,2013-01-19 03:50:00,
2013-01-18 22:51:00,31.6,27.6,30.22,NW,315,0.0,0.0,85,0.00,,,0.00,WUHU216HW,2013-01-19 03:51:00,
2013-01-18 22:52:00,69.2,63.5,29.45,East,90,3.3,11.1,82,0.00,,,0.00,WUHU216HW,2013-01-19 03:52:00,
2013-01-18 22:54:00,69.2,63.5,29.45,SSE,158,2.2,11.1,82,0.00,,,0.00,WUHU216HW,2013-01-19 03:54:00,
2013-01-18 22:56:00,69.4,63.6,29.45,SE,135,2.9,11.1,82,0.00,,,0.00,WUHU216HW,2013-01-19 03:56:00,
2013-01-18 22:57:00,31.6,27.6,30.22,NW,315,0.0,0.0,85,0.00,,,0.00,WUHU216HW,2013-01-19 03:57:00,
2013-01-18 22:58:00,69.4,63.6,29.44,SE,135,2.9,11.1,82,0.00,,,0.00,WUHU216HW,2013-01-19 03:58:00,
2013-01-18 22:59:00,69.0,63.3,29.44,South,180,5.3,11.1,82,0.00,,,0.00,WUHU216HW,2013-01-19 03:59:00,
2013-01-18 23:00:00,69.0,63.3,29.45,SSE,158,2.2,11.1,82,0.00,,,0.00,WUHU216HW,2013-01-19 04:00:00,
2013-01-18 23:02:00,31.6,27.6,30.22,NW,315,0.0,0.0,85,0.00,,,0.00,WUHU216HW,2013-01-19 04:02:00,
2013-01-18 23:07:00,31.6,27.6,30.22,NW,315,0.0,0.0,85,0.00,,,0.00,WUHU216HW,2013-01-19 04:07:00,
2013-01-18 23:12:00,31.6,27.6,30.22,NW,315,0.0,0.0,85,0.00,,,0.00,WUHU216HW,2013-01-19 04:12:00,
2013-01-18 23:17:00,31.6,27.6,30.22,NW,315,0.0,0.0,85,0.00,,,0.00,WUHU216HW,2013-01-19 04:17:00,
2013-01-18 23:22:00,31.6,27.6,30.21,NW,315,0.0,0.0,85,0.00,,,0.00,WUHU216HW,2013-01-19 04:22:00,
2013-01-18 23:27:00,31.6,27.6,30.21,NW,315,0.0,0.0,85,0.00,,,0.00,WUHU216HW,2013-01-19 04:27:00,
2013-01-18 23:33:00,31.6,27.6,30.22,NW,315,0.0,0.0,85,0.00,,,0.00,WUHU216HW,2013-01-19 04:33:00,
2013-01-18 23:38:00,31.4,27.5,30.21,NW,315,0.0,0.0,86,0.00,,,0.00,WUHU216HW,2013-01-19 04:38:00,
2013-01-18 23:43:00,31.4,27.5,30.21,NW,315,0.0,0.0,86,0.00,,,0.00,WUHU216HW,2013-01-19 04:43:00,
2013-01-18 23:49:00,31.2,27.6,30.21,NW,315,0.0,0.0,86,0.00,,,0.00,WUHU216HW,2013-01-19 04:49:00,
2013-01-18 23:54:00,31.1,27.4,30.21,NW,315,0.0,0.0,86,0.00,,,0.00,WUHU216HW,2013-01-19 04:54:00,
2013-01-18 23:59:00,30.9,27.2,30.21,NW,315,0.0,0.0,86,0.00,,,0.00,WUHU216HW,2013-01-19 04:59:00,